User: anonymous   Login
Location: Navalespino
(40.5894°N, 4.2660°W)
Time: 01:42:42
(UTC+00:00)
Language:

ATLAS CENTAUR R/B - Orbit

View from above orbital plane
View from above orbital plane
View from above satellite
View from above satellite

Ground track
Ground track

The orbit data is extracted from the following two-line orbital elements,

1 38770U 12048N   24167.60629171  .00013344  00000-0  59306-3 0  9993
2 38770  64.6490 199.6365 0105625  21.5479 339.0040 15.16846799  5923
Epoch (UTC): 15 June 2024 14:33:03
Eccentricity: 0.0105625
inclination: 64.6490°
perigee height: 442 km
apogee height: 588 km
right ascension of ascending node: 199.6365°
argument of perigee: 21.5479°
revolutions per day: 15.16846799
mean anomaly at epoch: 339.0040°
orbit number at epoch: 592

The dashed part of the orbit path shows where the satellite is in the earth's shadow,  

DLR